Погода в Ладисполи

Италия     41°57′09″N   12°04′30″E
темп.,
°C
ветер,
м/с
пор.,
м/с
влажн.,
%
обл.,
%
осадки,
мм/ч
давл.,
гПа
погр.,
м
7 марта, вс
вс701:00+10св248474 0.0 1025103
04:00+9всв3389100 0.6 1024119
07:00+9всв2390100 0.7 1024119
10:00+12вюв368490 0.1 1024515
13:00+14ююв466987 0.2 1022941
16:00+12юв4683100 0.1 1020386
19:00+11юв478976 0.2 1019405
22:00+10вюв369377 0.3 1019223
8 марта, пн
пн801:00+11вюв488588 0.6 1017366
04:00+10в3595100 2.6 1015277
07:00+10вюв2398100 10.8 1015248
10:00+11в3596100 9.8 1015362
13:00+10вюв5896100 18.3 1015439
16:00+10вюв2497100 10.6 1013285
19:00+9св5894100 26.2 1014298
22:00+9всв5992100 5.1 1014301
9 марта, вт
вт901:00+8св4694100 10.0 1014218
04:00+9св4791100 1.0 1013229
07:00+9св4889100 1.1 1013274
10:00+12св3679100 0.0 1014431
13:00+13св1374100 0.0 1014662
16:00+11ю0185100 0.3 1013114
19:00+10сз128793 0.3 1014109
22:00+8св228973 0.0 101644
10 марта, ср
ср1001:00+7ссв128859 0.0 101644
04:00+6ссв22860 0.0 101749
07:00+6ссв22840 0.0 101843
10:00+13ююв01660 0.0 1020446
13:00+13зюз32690 0.0 1020451
16:00+13з34690 0.0 1020386
19:00+10сз34790 0.0 1022118
22:00+8ссв22680 0.0 102444
11 марта, чт
чт1101:00+8св11640 0.0 102534
04:00+7всв11680 0.0 102442
07:00+7св11730 0.0 102542
10:00+13ю23660 0.0 1026408
13:00+14юз44670 0.0 1025910
16:00+13ююз35660 0.0 1024988
19:00+10ю34856 0.0 1024277
22:00+11ю478520 0.0 1024383